Change the Weather History Date:

Thursday, November 3, 2011

  Actual Average Record
Temperature  
Mean Temperature 34 °F 40 °F  
Max Temperature 52 °F 55 °F 72 °F (1983)
Min Temperature 19 °F 25 °F 14 °F (1982)
Degree Days  
Heating Degree Days 30 25  
Month to date heating degree days 74  
Since 1 July heating degree days 862  
Cooling Degree Days 0 0  
Month to date cooling degree days 0  
Year to date cooling degree days 243  
Moisture  
Dew Point 18 °F    
Average Humidity 61    
Maximum Humidity 92    
Minimum Humidity 25    
Precipitation  
Precipitation 0.00 in 0.06 in 0.60 in (1990)
Month to date precipitation 0.19  
Year to date precipitation 13.41  
Sea Level Pressure  
Sea Level Pressure 30.36 in    
Wind  
Wind Speed 3 mph (NE)    
Max Wind Speed 8 mph    
Max Gust Speed -    
Visibility 10 miles    
Events      
T = Trace of Precipitation, MM = Missing Value Source: NWS Daily Summary

Daily Weather History Graph

Daily Weather History Graph

Search for Another Location

Airport or City:

Trip Planner

Search our weather history database for the weather conditions in past years. The results will help you decide how hot, cold, wet, or windy it might be!

Date:

Astronomy

Nov. 03, 2011 Rise Set
Actual Time 7:37 AM MDT 6:11 PM MDT
Civil Twilight 7:10 AM MDT 6:38 PM MDT
Nautical Twilight 6:39 AM MDT 7:09 PM MDT
Astronomical Twilight 6:08 AM MDT 7:39 PM MDT
Moon 2:28 PM MDT (11/3) 1:01 AM MDT (11/3)
Length of Visible Light 11h 28m
Length of Day
10h 34m
First Quarter, 61% of the Moon is Illuminated
Nov 3
First Quarter
Nov 10
Full
Nov 18
Last Quarter
Nov 24
New
Dec 2
First Quarter

Hourly Weather History & Observations

Time (MDT) Temp. Windchill Dew Point Humidity Pressure Visibility Wind Dir Wind Speed Gust Speed Precip Events Conditions
12:53 AM 24.1 °F - 19.0 °F 81% 30.46 in 10.0 mi Calm Calm - N/A   Clear
1:53 AM 21.9 °F 15.7 °F 18.0 °F 85% 30.45 in 10.0 mi NE 4.6 mph - N/A   Clear
2:53 AM 24.1 °F - 19.0 °F 81% 30.43 in 10.0 mi Calm Calm - N/A   Clear
3:53 AM 24.1 °F 19.7 °F 18.0 °F 77% 30.41 in 10.0 mi NNW 3.5 mph - N/A   Clear
4:53 AM 19.0 °F 12.3 °F 17.1 °F 92% 30.44 in 10.0 mi South 4.6 mph - N/A   Clear
5:53 AM 19.0 °F 13.9 °F 16.0 °F 88% 30.46 in 10.0 mi NE 3.5 mph - N/A   Clear
7:53 AM 21.9 °F 14.5 °F 18.0 °F 85% 30.47 in 10.0 mi NE 5.8 mph - N/A   Clear
8:53 AM 26.1 °F - 21.0 °F 81% 30.50 in 10.0 mi Calm Calm - N/A   Clear
9:53 AM 33.1 °F - 23.0 °F 66% 30.47 in 10.0 mi Calm Calm - N/A   Clear
10:53 AM 41.0 °F 36.4 °F 21.0 °F 45% 30.40 in 10.0 mi ESE 6.9 mph - N/A   Clear
11:53 AM 43.0 °F 40.3 °F 18.0 °F 37% 30.38 in 10.0 mi Variable 4.6 mph - N/A   Clear
12:53 PM 46.0 °F 42.5 °F 18.0 °F 33% 30.35 in 10.0 mi NE 6.9 mph - N/A   Clear
1:53 PM 46.0 °F 43.9 °F 15.1 °F 29% 30.31 in 10.0 mi Variable 4.6 mph - N/A   Clear
2:53 PM 50.0 °F - 15.1 °F 25% 30.25 in 10.0 mi East 8.1 mph - N/A   Clear
6:53 PM 37.9 °F 32.7 °F 17.1 °F 43% 30.27 in 10.0 mi NNE 6.9 mph - N/A   Clear
7:53 PM 35.1 °F 32.2 °F 17.1 °F 48% 30.26 in 10.0 mi NE 3.5 mph - N/A   Clear
8:53 PM 35.1 °F 32.2 °F 17.1 °F 48% 30.24 in 10.0 mi NNE 3.5 mph - N/A   Clear
9:53 PM 36.0 °F - 18.0 °F 48% 30.20 in 10.0 mi Calm Calm - N/A   Clear
10:53 PM 32.0 °F 28.7 °F 19.0 °F 59% 30.17 in 10.0 mi North 3.5 mph - N/A   Clear
11:53 PM 26.1 °F 21.9 °F 18.0 °F 71% 30.19 in 10.0 mi ENE 3.5 mph - N/A   Clear